[[{"header":{"parameterUnit":"m.s-1","parameterCategory":1,"la1":30.2991,"la2":30.254,"lo1":-89.0895,"lo2":-89.0444,"dy":0.0017,"dx":0.0017,"nx":28,"ny":28,"refTime":"2023-09-03T03:00:00:Z","depth":0,"parameterNumber":2,"parameterNumberName":"U-component_of_WINDS"},"data":[0,0,0,0,0,0,0,0,0,0,0,0,0,0,0,0,0,0,0,0,0,0,0,0,0,0,0,0,0,0,0,0,0,0,0,0,0,0,0,0,0,0,0,0,0,0,0,0,0,0,0,0,0,0,0,0,0,0,-1.9897,-1.99,0,-2.0125,-2.0128,-2.013,-2.0234,-2.0234,-2.0234,-2.0234,-2.0469,-2.0476,-2.0482,0,0,0,0,0,0,0,0,0,0,0,0,0,-1.9554,-1.956,-1.9897,-1.99,-1.9903,-2.0125,-2.0128,-2.0131,-2.0234,-2.0234,-2.0234,-2.0233,-2.0467,-2.0475,-2.0483,0,0,0,0,0,0,0,0,0,0,0,0,0,-1.9735,-1.9562,-1.9896,-1.9981,-1.9991,-2.0124,-2.0128,-2.0132,-2.0234,-2.0234,-2.0234,-2.0233,-2.0465,-2.0474,-2.0484,-2.0551,0,0,-2.0514,-2.0518,0,0,0,0,0,0,0,0,-1.9724,-1.9747,-1.9966,-1.9975,-1.9986,-2.0151,-2.0094,-2.0272,-2.0234,-2.0142,-2.0233,-2.0233,-2.0364,-2.0382,-2.0425,-2.0562,-2.0572,-2.0514,-2.052,-2.0524,-2.0527,0,0,0,0,0,0,0,-1.9712,-1.9738,-1.9987,-1.9969,-1.9981,-2.0009,-2.0034,-2.0128,-2.0252,-2.015,-2.0158,-2.0183,-2.0369,-2.0416,-2.0432,-2.0576,-2.0514,-2.0523,-2.0529,-2.0533,-2.0781,-2.0782,0,0,0,0,0,0,-1.9685,-1.9727,-1.998,-1.9994,-1.9852,-2.0015,-2.0043,-2.0098,-2.0251,-2.0274,-2.0183,-2.0187,-2.0399,-2.042,-2.044,-2.0531,-2.0524,-2.0534,-2.0539,-2.0781,-2.0781,-2.0782,0,0,0,0,0,0,-1.9677,-1.9707,-1.9971,-1.9863,-1.9899,-2.0021,-2.0082,-2.0103,-2.015,-2.0277,-2.03,-2.0208,-2.04,-2.0427,-2.0523,-2.054,-2.0538,-2.0547,-2.078,-2.0781,-2.0782,-2.071,0,0,0,0,0,0,-1.9667,-1.9703,-1.9729,-1.9863,-1.9904,-2.0048,-2.0084,-2.0108,-2.0166,-2.0173,-2.0306,-2.0327,-2.0402,-2.0508,-2.0533,-2.0554,-2.0554,-2.0779,-2.078,-2.0782,-2.0711,-2.0709,-2.0706,0,0,0,0,0,-1.9654,-1.97,-1.973,-1.976,-1.9939,-2.0049,-2.0073,-2.0157,-2.0167,-2.0195,-2.0277,-2.0323,-2.0534,-2.0517,-2.0546,-2.057,-2.0778,-2.078,-2.0781,-2.0713,-2.0709,-2.0706,0,0,0,0,0,0,-1.9565,-1.9719,-1.9754,-1.9843,-1.9932,-2.0066,-2.0104,-2.015,-2.0239,-2.0242,-2.0343,-2.0372,-2.046,-2.0525,-2.0503,-2.0644,-2.066,-2.0668,-2.0598,-2.0596,-2.0593,-2.0576,-2.0563,0,0,0,0,0,-1.9556,-1.9632,-1.9762,-1.9829,-1.9872,-1.998,-2.0031,-2.0088,-2.0185,-2.0223,-2.0312,-2.0405,-2.0493,-2.0548,-2.0635,-2.0722,-2.0753,-2.0752,-2.075,-2.0747,-2.0752,-2.0804,-2.0806,-2.0788,-2.0788,-2.0788,0,0,-1.9538,-1.9631,-1.9673,-1.9814,-1.9889,-1.9967,-2.0011,-2.0091,-2.015,-2.0236,-2.0332,-2.0401,-2.0511,-2.0603,-2.0648,-2.0659,-2.0764,-2.0749,-2.0746,-2.0753,-2.0806,-2.0808,-2.0809,-2.0789,-2.0789,-2.0789,0,0,-1.9544,-1.9622,-1.9687,-1.9762,-1.9876,-1.9947,-1.9963,-2.009,-2.0139,-2.0237,-2.0304,-2.0376,-2.0524,-2.0601,-2.0659,-2.0696,-2.0743,-2.0722,-2.0708,-2.0757,-2.0759,-2.0761,-2.0775,-2.0778,-2.0727,-2.0727,-2.0726,0,-1.9507,-1.9626,-1.9714,-1.9791,-1.9851,-1.9933,-2.0,-2.0069,-2.0205,-2.0246,-2.0257,-2.0446,-2.0526,-2.0637,-2.0646,-2.069,-2.0712,-2.0707,-2.0751,-2.0754,-2.0757,-2.0772,-2.0777,-2.0723,-2.0724,-2.0724,-2.0724,0,-1.9576,-1.9657,-1.9696,-1.9825,-1.9891,-1.9962,-2.0062,-2.0118,-2.017,-2.0241,-2.0341,-2.044,-2.0549,-2.058,-2.0632,-2.07,-2.0704,-2.0731,-2.075,-2.0754,-2.077,-2.0776,-2.0719,-2.072,-2.0721,-2.0722,0,0,-1.9532,-1.971,-1.9723,-1.9783,-1.9915,-1.9981,-2.0057,-2.0163,-2.0209,-2.0302,-2.0369,-2.0493,-2.052,-2.0586,-2.0647,-2.0691,-2.0715,-2.0714,-2.0718,-2.0711,-2.0798,-2.0776,-2.0781,-2.0747,-2.0748,-2.075,-2.0789,0,-1.9557,-1.9695,-1.9777,-1.9883,-1.996,-2.0039,-2.0106,-2.0194,-2.0263,-2.034,-2.0417,-2.0503,-2.0532,-2.0573,-2.0619,-2.0702,-2.0734,-2.07,-2.0811,-2.0814,-2.0781,-2.0789,-2.0766,-2.0798,-2.0795,-2.0796,-2.0797,0,-1.9604,-1.9694,-1.9807,-1.9932,-1.9967,-2.0025,-2.013,-2.0202,-2.0306,-2.0353,-2.0427,-2.0488,-2.0573,-2.0585,-2.0704,-2.068,-2.073,-2.0778,-2.0782,-2.0795,-2.0806,-2.0803,-2.081,-2.0815,-2.0807,-2.0807,-2.0806,0,-1.9561,-1.9711,-1.9798,-1.9847,-1.9995,-2.0034,-2.0098,-2.0201,-2.026,-2.0353,-2.0393,-2.0494,-2.0549,-2.0627,-2.0715,-2.0715,-2.0826,-2.0845,-2.0868,-2.0866,-2.0888,-2.0885,-2.0903,-2.092,-2.092,-2.0919,-2.0919,0,-1.9581,-1.9647,-1.9781,-1.9834,-1.9912,-2.0007,-2.0081,-2.0151,-2.0242,-2.0312,-2.0387,-2.0451,-2.0563,-2.0641,-2.0711,-2.08,-2.0824,-2.0866,-2.0883,-2.0859,-2.0854,-2.0894,-2.0894,-2.0921,-2.0921,-2.092,-2.092,0,-1.9546,-1.9638,-1.9739,-1.9871,-1.9905,-1.9956,-2.007,-2.0126,-2.0199,-2.0286,-2.0313,-2.0428,-2.0524,-2.0619,-2.0749,-2.0796,-2.0884,-2.0908,-2.0849,-2.0859,-2.0877,-2.0874,-2.0922,-2.0933,-2.094,-2.094,-2.094,0,-1.9553,-1.9605,-1.9743,-1.9794,-1.9856,-1.9938,-2.0,-2.0096,-2.0156,-2.0279,-2.032,-2.0422,-2.0509,-2.0659,-2.0755,-2.0855,-2.0882,-2.0892,-2.0898,-2.0872,-2.0884,-2.0879,-2.0886,-2.0889,-2.0888,-2.0888,-2.0888,0,-1.9555,-1.9598,-1.9682,-1.9783,-1.9854,-1.9938,-2.0025,-2.0064,-2.0177,-2.0242,-2.0341,-2.0408,-2.0541,-2.0641,-2.0753,-2.082,-2.0873,-2.0885,-2.0896,-2.0872,-2.0836,-2.0856,-2.0841,-2.0884,-2.0884,-2.0884,-2.0885,-2.0885,-1.9542,-1.9592,-1.9697,-1.9789,-1.9865,-1.9945,-2.0004,-2.0085,-2.0169,-2.0284,-2.0336,-2.0436,-2.054,-2.0695,-2.0762,-2.0842,-2.0856,-2.0872,-2.0876,-2.0878,-2.0873,-2.0822,-2.0863,-2.0863,-2.0864,-2.0864,-2.0864,0,-1.9548,-1.9619,-1.9703,-1.9822,-1.9895,-1.9938,-2.0037,-2.0096,-2.0183,-2.0275,-2.0358,-2.0473,-2.0572,-2.0676,-2.078,-2.0825,-2.0852,-2.0849,-2.0847,-2.0862,-2.0854,-2.0835,-2.0826,-2.0826,-2.0826,-2.0826,-2.0826,-2.0826,-1.956,-1.9648,-1.9704,-1.9832,-1.9904,-2.0002,-2.0055,-2.013,-2.0204,-2.0328,-2.041,-2.0477,-2.0575,-2.0687,-2.078,-2.0809,-2.0844,-2.0834,-2.0869,-2.086,-2.0863,-2.0865,-2.0847,-2.0841,-2.0841,-2.0871,-2.0871,-2.0871]},{"header":{"parameterUnit":"m.s-1","parameterCategory":1,"la1":30.2991,"la2":30.254,"lo1":-89.0895,"lo2":-89.0444,"dy":0.0017,"dx":0.0017,"nx":28,"ny":28,"refTime":"2023-09-03T03:00:00:Z","depth":0,"parameterNumber":3,"parameterNumberName":"V-component_of_WINDS"},"data":[0,0,0,0,0,0,0,0,0,0,0,0,0,0,0,0,0,0,0,0,0,0,0,0,0,0,0,0,0,0,0,0,0,0,0,0,0,0,0,0,0,0,0,0,0,0,0,0,0,0,0,0,0,0,0,0,0,0,3.7143,3.7146,0,3.7457,3.746,3.7464,3.7589,3.7588,3.7588,3.7587,3.79,3.7909,3.7918,0,0,0,0,0,0,0,0,0,0,0,0,0,3.6644,3.6652,3.7142,3.7146,3.715,3.7456,3.746,3.7465,3.7589,3.7588,3.7587,3.7586,3.7897,3.7908,3.7919,0,0,0,0,0,0,0,0,0,0,0,0,0,3.6899,3.6655,3.7142,3.7249,3.7262,3.7455,3.746,3.7466,3.7589,3.7588,3.7587,3.7586,3.7894,3.7907,3.7921,3.8027,0,0,3.7962,3.7968,0,0,0,0,0,0,0,0,3.6884,3.6917,3.723,3.7242,3.7257,3.7483,3.74,3.7654,3.759,3.7465,3.7587,3.7586,3.7762,3.7786,3.7847,3.8042,3.8055,3.7963,3.7971,3.7977,3.7981,0,0,0,0,0,0,0,3.6866,3.6904,3.7266,3.7234,3.7251,3.728,3.7315,3.7448,3.7615,3.7476,3.7486,3.7521,3.7769,3.7834,3.7856,3.806,3.7963,3.7975,3.7983,3.7989,3.8358,3.8359,0,0,0,0,0,0,3.6832,3.6889,3.7256,3.7276,3.7064,3.729,3.7329,3.7411,3.7615,3.7645,3.7522,3.7526,3.7811,3.784,3.7867,3.8006,3.7977,3.799,3.7998,3.8356,3.8358,3.836,0,0,0,0,0,0,3.6821,3.6864,3.7244,3.7085,3.7136,3.73,3.7391,3.7418,3.7483,3.765,3.7679,3.7558,3.7812,3.7848,3.7987,3.8018,3.7996,3.8008,3.8354,3.8357,3.8359,3.8283,0,0,0,0,0,0,3.6806,3.6859,3.6902,3.7085,3.7144,3.736,3.7393,3.7425,3.7507,3.7515,3.7692,3.7719,3.7813,3.7966,3.8001,3.8037,3.8019,3.8352,3.8355,3.8358,3.8283,3.8282,3.8281,0,0,0,0,0,3.6788,3.6867,3.6904,3.6948,3.7202,3.7362,3.7395,3.7504,3.7509,3.7554,3.7661,3.7714,3.8009,3.7979,3.8019,3.8059,3.835,3.8354,3.8358,3.8283,3.8282,3.8281,0,0,0,0,0,0,3.668,3.6893,3.6936,3.7077,3.7201,3.7383,3.7442,3.7499,3.7622,3.7624,3.7751,3.779,3.7918,3.8003,3.7966,3.8174,3.8184,3.8196,3.8113,3.8114,3.8113,3.8089,3.803,0,0,0,0,0,3.6673,3.6788,3.6966,3.7073,3.7133,3.7276,3.735,3.7424,3.7556,3.7608,3.7725,3.7849,3.797,3.8047,3.8167,3.8296,3.8336,3.8344,3.8343,3.8341,3.8349,3.8424,3.8429,3.8372,3.8372,3.8372,0,0,3.6659,3.679,3.6853,3.7055,3.7159,3.7272,3.7319,3.7437,3.7522,3.7625,3.7764,3.7854,3.8001,3.8135,3.82,3.821,3.8375,3.8346,3.8344,3.8353,3.8428,3.8434,3.8438,3.8375,3.8374,3.8374,0,0,3.6692,3.6802,3.6904,3.7008,3.7167,3.7262,3.7286,3.7461,3.7525,3.7668,3.7747,3.7849,3.8054,3.8156,3.8234,3.8307,3.836,3.8342,3.8337,3.8408,3.8413,3.8417,3.8443,3.845,3.835,3.835,3.835,0,3.6654,3.6831,3.6948,3.7063,3.7148,3.725,3.7353,3.7447,3.7635,3.7691,3.77,3.7961,3.8067,3.8227,3.8245,3.8305,3.8335,3.8322,3.8403,3.8409,3.8415,3.844,3.845,3.8347,3.8347,3.8347,3.8348,0,3.6776,3.6896,3.6959,3.7142,3.7234,3.7342,3.7474,3.7554,3.7619,3.7712,3.7856,3.7987,3.8136,3.8179,3.8243,3.8348,3.8349,3.8379,3.8392,3.8415,3.8441,3.8452,3.8342,3.8343,3.8344,3.8345,0,0,3.6748,3.6996,3.7017,3.7101,3.7284,3.7379,3.749,3.7639,3.7704,3.7831,3.7926,3.8099,3.8128,3.8217,3.8293,3.8356,3.8404,3.8378,3.8384,3.8378,3.8528,3.8503,3.8513,3.8441,3.8444,3.8446,3.8515,0,3.6805,3.7012,3.7122,3.7281,3.7394,3.7492,3.7589,3.7711,3.7801,3.7908,3.8007,3.8128,3.8157,3.8212,3.8278,3.8384,3.8436,3.8381,3.853,3.8534,3.8489,3.8527,3.8502,3.8561,3.8526,3.8528,3.8529,0,3.6899,3.7027,3.7198,3.7369,3.742,3.7506,3.7651,3.7753,3.7892,3.7953,3.8053,3.8129,3.8249,3.8253,3.8419,3.8379,3.8447,3.8508,3.8513,3.853,3.8532,3.8544,3.8583,3.8591,3.8546,3.8545,3.8544,0,3.6861,3.7076,3.7207,3.7276,3.7478,3.7536,3.7622,3.7761,3.7843,3.7969,3.8024,3.8161,3.8236,3.8339,3.845,3.8443,3.8604,3.8618,3.8657,3.8654,3.8686,3.8682,3.8734,3.873,3.873,3.873,3.8729,0,3.6912,3.7013,3.7193,3.7273,3.7388,3.7513,3.7623,3.7717,3.7839,3.7938,3.803,3.812,3.8261,3.8368,3.8455,3.8579,3.8612,3.8663,3.8685,3.8655,3.8648,3.87,3.8698,3.8732,3.8732,3.8731,3.8731,0,3.6889,3.7014,3.7163,3.7343,3.739,3.7467,3.7621,3.7701,3.7797,3.7921,3.7957,3.8106,3.8237,3.8358,3.8531,3.859,3.8715,3.8743,3.8668,3.868,3.8712,3.8707,3.8799,3.8818,3.88,3.88,3.88,0,3.6913,3.6994,3.7183,3.7257,3.7343,3.746,3.7546,3.7671,3.7756,3.7921,3.7981,3.812,3.8237,3.8442,3.8564,3.8697,3.8729,3.8752,3.8749,3.8717,3.8729,3.8722,3.8731,3.875,3.8749,3.8749,3.8749,0,3.6943,3.7001,3.7122,3.7265,3.7364,3.7482,3.7602,3.7657,3.7804,3.7894,3.8031,3.8122,3.8301,3.8437,3.8585,3.8672,3.8734,3.8749,3.8765,3.8734,3.8688,3.8713,3.8663,3.8746,3.8746,3.8746,3.8746,3.8747,3.6945,3.7021,3.7166,3.7298,3.7402,3.7512,3.7597,3.7705,3.7822,3.7979,3.8045,3.8183,3.832,3.8525,3.8612,3.8721,3.8734,3.8757,3.8762,3.8766,3.876,3.8671,3.8748,3.8748,3.8748,3.8748,3.8749,0,3.6979,3.7078,3.7198,3.7364,3.7467,3.752,3.7656,3.7738,3.7859,3.7983,3.8098,3.8254,3.8387,3.8521,3.866,3.8721,3.8753,3.8753,3.875,3.8769,3.8741,3.8713,3.8725,3.8725,3.8725,3.8725,3.8725,3.8725,3.7009,3.7141,3.7216,3.7399,3.7497,3.7635,3.7708,3.781,3.791,3.8082,3.8193,3.828,3.8408,3.8558,3.8681,3.8717,3.8763,3.8755,3.8799,3.877,3.877,3.8771,3.8746,3.8765,3.8765,3.8818,3.8818,3.8819]}]]